Location: Briis
(48.6240°N, 2.1211°E)
Time: 15:08:47
(UTC+00:00)

SL-16 R/B - Pass Details

Date: 25 September 2020
Orbit: 842 x 846 km, 71.0° (Epoch: 21 October)

Event Time Altitude Azimuth Distance (km) Brightness Sun altitude
Exits shadow 04:48:43 12° 257° (WSW) 2,306 3.8 -9.7°
Maximum altitude 04:53:04 29° 313° (NW) 1,516 3.2 -9.0°
Drops below altitude 10° 04:57:58 10° 13° (NNE) 2,478 4.9 -8.2°
Sets 05:00:46 0° 25° (NNE) 3,417 5.8 -7.8°
